Port Hardy, British Columbia

05:50 AM PST ar Ionawr 24, 2019 (GMT -0800)
Port Hardy | | Change Station

Elev 72 ft 50.68 °N, 127.37 °W | Updated 50 minutes ago

Cymylog
Cymylog
39 °F
Feels Like 37 °F
N
4
Gwynt Cyfnewidiol Gwynt from De

Heddiw
High -- | Low -- °F
--% Chance of Precip.
Yesterday
High -- | Low -- °F
Precip. -- mod
Gwasgedd 30.49 mod
Gwelededd 10.0 Milltiroedd
Clouds Cymylog 1200 ft
Oerfel Gwynt 37 °F
Gwlithbwynt 37 °F
Lleithder 93%
Rainfall 0.00 mod
Snow Depth Not available.
8:16 AM 5:08 PM
Waning Gibbous, 84% visible
METAR CYZT 241300Z 18003KT 10SM OVC012 04/03 A3048 RMK SC8 SLP323
Gwasgedd 30.49 mod
Gwelededd 10.0 Milltiroedd
Clouds Cymylog 1200 ft
Oerfel Gwynt 37 °F
Gwlithbwynt 37 °F
Lleithder 93%
Rainfall 0.00 mod
Snow Depth Not available.
8:16 AM 5:08 PM
Waning Gibbous, 84% visible
METAR CYZT 241300Z 18003KT 10SM OVC012 04/03 A3048 RMK SC8 SLP323

Get Severe Weather Alerts

Thanks for signing up!

Be on the lookout for a verification email in your inbox.

You'll start receiving the daily forecast at 6 AM.

×

10-Day Weather Forecast

Almanac

Astronomy

Jan. 24, 2019 Rise Set
Actual Time
Civil Twilight
Nautical Twilight
Astronomical Twilight
Moon
Length Of Visible Light
Length of Day
Tomorrow will be .
, % of the Moon is Illuminated

Today's Extremes

Country Highs Country Lows

Community

WunderPhotos

Category 6

Welcome to Category 6. This is the collective home for Weather Underground's featured writeups by Dr. Jeff Masters (right), Bob Henson (left), Chris Burt, and other regular contributors.

Nearby

Air Quality

  Air Quality AQ Index Pollutant
Not available.

Snow Depth

Station Depth Elevation

Earthquake Activity

City Distance Mag. Time & Date
Minimum magnitude displayed is 2.5.

Coastal Water Temperatures

Lle Tymheredd

Stations

Nearby Weather Stations

Station Location Temp Oerfel Gwynt Gwlithbwynt Lleithder Gwynt Precip. Elev Diweddarwyd Type
                   

Watches & Warnings

There are currently no watches in effect.